• In Uzbekistan
  • List of Countries
  • For 7 days
  • Water Temperature
  • Satellite Maps
  • Weather Map
  • Weather Widgets
  • user-avatar
    Login

    Hourly Weather Al-Jahra

    Today, 18 June, Monday

    Time Temperature Precipitation Wind Pressure Humidity
    00:00 +42°C° 0 mm 11 mps 745 mmHg 13%
    01:00 +42°C° 0 mm 11 mps 744 mmHg 13%
    02:00 +40°C° 0 mm 10 mps 744 mmHg 14%
    03:00 +39°C° 0 mm 7 mps 744 mmHg 15%
    04:00 +39°C° 0 mm 7 mps 744 mmHg 15%
    05:00 +39°C° 0 mm 8 mps 744 mmHg 15%
    06:00 +39°C° 0 mm 8 mps 745 mmHg 15%
    07:00 +42°C° 0 mm 9 mps 745 mmHg 14%
    08:00 +44°C° 0 mm 10 mps 745 mmHg 12%
    09:00 +48°C° 0 mm 11 mps 745 mmHg 10%
    10:00 +49°C° 0 mm 11 mps 745 mmHg 9%
    11:00 +51°C° 0 mm 11 mps 745 mmHg 8%
    12:00 +52°C° 0 mm 12 mps 745 mmHg 8%
    13:00 +52°C° 0 mm 12 mps 744 mmHg 7%
    14:00 +52°C° 0 mm 11 mps 744 mmHg 7%
    15:00 +52°C° 0 mm 11 mps 744 mmHg 7%
    16:00 +52°C° 0 mm 10 mps 744 mmHg 7%
    17:00 +50°C° 0 mm 10 mps 744 mmHg 8%
    18:00 +50°C° 0 mm 9 mps 744 mmHg 8%
    19:00 +48°C° 0 mm 8 mps 744 mmHg 9%
    20:00 +46°C° 0 mm 7 mps 744 mmHg 9%
    21:00 +45°C° 0 mm 6 mps 744 mmHg 10%
    22:00 +44°C° 0 mm 6 mps 744 mmHg 11%
    23:00 +44°C° 0 mm 7 mps 744 mmHg 12%

    Tomorrow, 19 June, Tuesday

    Time Temperature Precipitation Wind Pressure Humidity
    00:00 +43°C° 0 mm 8 mps 745 mmHg 13%
    01:00 +41°C° 0 mm 8 mps 745 mmHg 14%
    02:00 +40°C° 0 mm 7 mps 745 mmHg 15%
    03:00 +40°C° 0 mm 7 mps 745 mmHg 16%
    04:00 +39°C° 0 mm 7 mps 745 mmHg 16%
    05:00 +39°C° 0 mm 7 mps 745 mmHg 16%
    06:00 +39°C° 0 mm 6 mps 745 mmHg 16%
    07:00 +41°C° 0 mm 7 mps 746 mmHg 14%
    08:00 +44°C° 0 mm 7 mps 746 mmHg 11%
    09:00 +46°C° 0 mm 8 mps 746 mmHg 9%
    10:00 +48°C° 0 mm 8 mps 747 mmHg 8%
    11:00 +49°C° 0 mm 8 mps 747 mmHg 8%
    12:00 +51°C° 0 mm 8 mps 747 mmHg 7%
    13:00 +51°C° 0 mm 8 mps 746 mmHg 7%
    14:00 +51°C° 0 mm 9 mps 746 mmHg 7%
    15:00 +51°C° 0 mm 9 mps 746 mmHg 7%
    16:00 +51°C° 0 mm 9 mps 746 mmHg 8%
    17:00 +50°C° 0 mm 9 mps 746 mmHg 8%
    18:00 +49°C° 0 mm 9 mps 746 mmHg 9%
    19:00 +47°C° 0 mm 7 mps 746 mmHg 10%
    20:00 +46°C° 0 mm 6 mps 746 mmHg 11%
    21:00 +43°C° 0 mm 5 mps 746 mmHg 12%
    22:00 +43°C° 0 mm 5 mps 746 mmHg 13%
    23:00 +42°C° 0 mm 6 mps 746 mmHg 13%

    Day after tomorrow, 20 June, Wednesday

    Time Temperature Precipitation Wind Pressure Humidity
    00:00 +41°C° 0 mm 6 mps 746 mmHg 14%
    01:00 +41°C° 0 mm 6 mps 746 mmHg 14%
    02:00 +40°C° 0 mm 6 mps 746 mmHg 14%
    03:00 +39°C° 0 mm 7 mps 746 mmHg 14%
    04:00 +39°C° 0 mm 7 mps 746 mmHg 15%
    05:00 +39°C° 0 mm 6 mps 746 mmHg 15%
    06:00 +39°C° 0 mm 6 mps 746 mmHg 15%
    07:00 +41°C° 0 mm 8 mps 746 mmHg 13%
    08:00 +44°C° 0 mm 10 mps 747 mmHg 11%
    09:00 +47°C° 0 mm 11 mps 747 mmHg 9%
    10:00 +49°C° 0 mm 12 mps 747 mmHg 8%
    11:00 +51°C° 0 mm 12 mps 747 mmHg 7%
    12:00 +52°C° 0 mm 13 mps 747 mmHg 6%
    13:00 +53°C° 0 mm 13 mps 746 mmHg 6%
    14:00 +53°C° 0 mm 13 mps 746 mmHg 6%
    15:00 +53°C° 0 mm 13 mps 746 mmHg 5%
    16:00 +52°C° 0 mm 12 mps 746 mmHg 6%
    17:00 +51°C° 0 mm 12 mps 745 mmHg 7%
    18:00 +49°C° 0 mm 11 mps 745 mmHg 7%
    19:00 +48°C° 0 mm 10 mps 746 mmHg 8%
    20:00 +46°C° 0 mm 8 mps 746 mmHg 9%
    21:00 +45°C° 0 mm 7 mps 747 mmHg 10%
    22:00 +44°C° 0 mm 8 mps 747 mmHg 10%
    23:00 +43°C° 0 mm 8 mps 747 mmHg 11%

    21 June, Thursday

    Time Temperature Precipitation Wind Pressure Humidity
    00:00 +41°C° 0 mm 8 mps 746 mmHg 12%
    01:00 +41°C° 0 mm 8 mps 746 mmHg 12%
    02:00 +40°C° 0 mm 8 mps 746 mmHg 13%
    03:00 +39°C° 0 mm 8 mps 746 mmHg 13%
    04:00 +39°C° 0 mm 7 mps 746 mmHg 13%
    05:00 +39°C° 0 mm 7 mps 746 mmHg 13%
    06:00 +38°C° 0 mm 7 mps 746 mmHg 13%
    07:00 +42°C° 0 mm 9 mps 747 mmHg 12%
    08:00 +44°C° 0 mm 10 mps 747 mmHg 10%
    09:00 +47°C° 0 mm 12 mps 747 mmHg 8%
    10:00 +48°C° 0 mm 12 mps 747 mmHg 7%
    11:00 +51°C° 0 mm 12 mps 746 mmHg 6%
    12:00 +52°C° 0 mm 12 mps 746 mmHg 5%
    13:00 +52°C° 0 mm 12 mps 746 mmHg 5%
    14:00 +53°C° 0 mm 12 mps 745 mmHg 4%
    15:00 +53°C° 0 mm 12 mps 745 mmHg 4%
    16:00 +52°C° 0 mm 11 mps 744 mmHg 4%
    17:00 +51°C° 0 mm 11 mps 744 mmHg 5%
    18:00 +50°C° 0 mm 10 mps 744 mmHg 5%
    19:00 +48°C° 0 mm 9 mps 745 mmHg 6%
    20:00 +46°C° 0 mm 8 mps 745 mmHg 7%
    21:00 +45°C° 0 mm 7 mps 746 mmHg 7%
    22:00 +44°C° 0 mm 7 mps 746 mmHg 8%
    23:00 +43°C° 0 mm 7 mps 746 mmHg 9%

    22 June, Friday

    Time Temperature Precipitation Wind Pressure Humidity
    00:00 +41°C° 0 mm 7 mps 745 mmHg 10%
    01:00 +40°C° 0 mm 7 mps 745 mmHg 11%
    02:00 +40°C° 0 mm 7 mps 745 mmHg 13%
    03:00 +39°C° 0 mm 7 mps 745 mmHg 14%
    04:00 +39°C° 0 mm 6 mps 745 mmHg 15%
    05:00 +38°C° 0 mm 6 mps 745 mmHg 16%
    06:00 +38°C° 0 mm 6 mps 746 mmHg 17%
    07:00 +40°C° 0 mm 7 mps 746 mmHg 14%
    08:00 +44°C° 0 mm 9 mps 746 mmHg 12%
    09:00 +47°C° 0 mm 10 mps 746 mmHg 9%
    10:00 +48°C° 0 mm 11 mps 746 mmHg 8%
    11:00 +49°C° 0 mm 11 mps 746 mmHg 7%
    12:00 +51°C° 0 mm 11 mps 745 mmHg 7%
    13:00 +52°C° 0 mm 11 mps 745 mmHg 6%
    14:00 +52°C° 0 mm 11 mps 745 mmHg 6%
    15:00 +52°C° 0 mm 11 mps 744 mmHg 6%
    16:00 +52°C° 0 mm 10 mps 744 mmHg 6%
    17:00 +50°C° 0 mm 9 mps 744 mmHg 7%
    18:00 +49°C° 0 mm 9 mps 744 mmHg 7%
    19:00 +48°C° 0 mm 8 mps 744 mmHg 8%
    20:00 +45°C° 0 mm 7 mps 745 mmHg 8%
    21:00 +44°C° 0 mm 6 mps 745 mmHg 9%
    22:00 +42°C° 0 mm 6 mps 745 mmHg 10%
    23:00 +41°C° 0 mm 7 mps 745 mmHg 10%

    23 June, Saturday

    Time Temperature Precipitation Wind Pressure Humidity
    00:00 +41°C° 0 mm 7 mps 745 mmHg 11%
    01:00 +40°C° 0 mm 7 mps 745 mmHg 13%
    02:00 +39°C° 0 mm 7 mps 745 mmHg 14%
    03:00 +38°C° 0 mm 7 mps 745 mmHg 16%
    04:00 +38°C° 0 mm 6 mps 745 mmHg 16%
    05:00 +36°C° 0 mm 6 mps 746 mmHg 17%
    06:00 +36°C° 0 mm 6 mps 746 mmHg 17%
    07:00 +39°C° 0 mm 7 mps 746 mmHg 15%
    08:00 +41°C° 0 mm 8 mps 746 mmHg 13%
    09:00 +44°C° 0 mm 10 mps 747 mmHg 11%
    10:00 +45°C° 0 mm 10 mps 746 mmHg 10%
    11:00 +47°C° 0 mm 10 mps 746 mmHg 9%
    12:00 +48°C° 0 mm 10 mps 745 mmHg 8%
    13:00 +48°C° 0 mm 10 mps 745 mmHg 8%
    14:00 +49°C° 0 mm 10 mps 744 mmHg 8%
    15:00 +49°C° 0 mm 10 mps 744 mmHg 7%
    16:00 +48°C° 0 mm 10 mps 744 mmHg 8%
    17:00 +48°C° 0 mm 9 mps 744 mmHg 8%
    18:00 +47°C° 0 mm 9 mps 744 mmHg 9%
    19:00 +45°C° 0 mm 8 mps 744 mmHg 10%
    20:00 +44°C° 0 mm 8 mps 744 mmHg 10%
    21:00 +41°C° 0 mm 7 mps 744 mmHg 11%
    22:00 +41°C° 0 mm 7 mps 744 mmHg 12%
    23:00 +40°C° 0 mm 7 mps 744 mmHg 12%
    Show more